Regional Weather Roundup
Issued by NWS Charleston, WV

Home | Current Version | Previous Version | Text Only | Print | Product List | Glossary Off
Versions: 1 2 3 4 5 6 7 8 9 10 11 12 13 14 15 16 17 18 19 20 21 22 23 24 25 26 27 28 29 30 31 32 33 34 35 36 37 38 39 40 41 42 43 44 45 46 47 48 49 50

000
ASUS41 KRLX 201710
RWRRLX
West Virginia Regional Weather Roundup
National Weather Service Charleston WV
100 PM EDT SAT SEP 20 2014

Note: "fair" indicates few or no clouds below 12,000 feet with no
significant weather and/or obstructions to visibility.

WVZ003-201800-
Northern Panhandle of West Virginia

CITY           SKY/WX    TMP DP  RH WIND       PRES   REMARKS
WHEELING       MOSUNNY   74  60  61 SW13G20   30.10F
$$

WVZ009-201800-
Northwest West Virginia

CITY           SKY/WX    TMP DP  RH WIND       PRES   REMARKS
PARKERSBURG    PTSUNNY   76  59  55 SW6       30.13F
$$

WVZ006-201800-
Western West Virginia

CITY           SKY/WX    TMP DP  RH WIND       PRES   REMARKS
HUNTINGTON     MOSUNNY   76  61  59 SW7       30.12F
$$

WVZ015-201800-
West Central West Virginia

CITY           SKY/WX    TMP DP  RH WIND       PRES   REMARKS
CHARLESTON     PTSUNNY   77  61  57 S6        30.13F
$$

WVZ031-201800-
North Central West Virginia

CITY           SKY/WX    TMP DP  RH WIND       PRES   REMARKS
CLARKSBURG     MOSUNNY   76  60  57 S13       30.14F
MORGANTOWN     SUNNY     77  57  50 S8        30.14F
$$

WVZ035-042-045-201800-
South Central West Virginia

CITY           SKY/WX    TMP DP  RH WIND       PRES   REMARKS
BECKLEY        SUNNY     73  55  53 VRB3      30.21F
BLUEFIELD      SUNNY     74  54  49 VRB5      30.24F
LEWISBURG      MOSUNNY   74  56  53 S3        30.22F
$$

WVZ047-201800-
Northern Mountains of West Virginia

CITY           SKY/WX    TMP DP  RH WIND       PRES   REMARKS
ELKINS         PTSUNNY   75  57  53 W8        30.18F
$$

WVZ052-201800-
Eastern Panhandle of West Virginia

CITY           SKY/WX    TMP DP  RH WIND       PRES   REMARKS
MARTINSBURG    PTSUNNY   75  53  46 S8G20     30.18F
PETERSBURG     SUNNY     81  52  37 SE8       30.14F
$$


USA.gov is the U.S. government's official web portal to all federal, state and local government web resources and services.